Погода Нарьян-Мар

Погода Нарьян-Мар : погода сейчас, прогноз погоды и архив. Всё, что Вы хотите узнать о погоде Нарьян-Мар!

Хотите узнать прогноз погоды Нарьян-Мар? Тогда Вам сюда: Погода Нарьян-Мар

Поиск расширенной информации на нашем сайте:

Другие новости

Новости СМИ2

Главная страница сайта

Новости сайта

02.10.2013

Напоминаем, что на нашем новом сайте вы можете получить высокодетализированные прогнозы погоды по пунктам России, СНГ и мира (включающие важные для авиации метеовеличины, такие как направление и скорость ветра, видимость, явления погоды, количество и форма облачности, нижняя и верхняя граница облачности), а также ознакомиться с разнообразными материалами по авиационной метеорологии и подборкой полезных ссылок на эту тему.

Сайт Метеоцентр.Азия посвящён разработке технологий оптимизации авиаметеорологического обслуживания, включая проектирование и перспективное создание нескольких автоматизированных авиаметеорологических систем:
- система выпуска высокодетальных прогностических карт явлений погоды для нижнего воздушного пространства по России и ближнему зарубежью;
- система верификации прогнозов TAF (выпускаемых синоптиками официальных АМСГ РФ и ближнего зарубежья) и AUTOTAF (выпускаемых сайтом Метеоцентр.Азия) - выявление ошибок, онлайн-сопоставление с фактической погодой METAR, автоматическое внесение коррективов в прогнозы при резком отклонении фактической погоды от прогноза, подсчёт оправдываемости прогнозов по элементам и в целом;
- система обработки, анализа и отображения авиаметеорологической информации для применения провайдерами метеорологической информации.


Погода Нарьян-Мар - сегодня

Время (UTC), дата Ветер
(°,м/с) 
Видим.   Явления Облачность Т
(°С)
Тd
(°С)
f(%) Тe
(°С)
Pmin
(гПа)
dP
(гПа)
Po
(мм)
O2
(г/м3)
Тmin Tmax R s Состояние
почвы
06 18.02.17 100 (В) 4000 м  слаб. снег  10/8 400 м средняя 
[Frnb|As op]
-10.9 -13.3 82 -15  990.3  -2.2  742  312           
09 18.02.17 100 (В) 2000 м  снег  10/8 300 м средняя 
[Frnb|As op]
-9.2 -10.9 87 -14  987.8  -2.5  740  310           
12 18.02.17 080 (В) 1000 м  сильн. снег  10/9 270 м средняя 
[Frnb|As op]
-11.1 -12.8 87 -15  986.4  -1.4  739  311           
15 18.02.17 070 (В) 4000 м  слаб. снег  10/9 240 м средняя 
[Frnb|As op]
-10.9 -12.4 89 -15  985.6  -0.8  738  311    -9     
18 18.02.17 050 (СВ) 4000 м  слаб. снег  10/10 210 м 
[Frnb|Ns]
-12.2 -13.9 87 -17  985.2  -0.4  738  312           
21 18.02.17 050 (СВ) 5{10}  4000 м  слаб. снег  10/9 330 м средняя 
[Frnb|As op]
-13 -14.8 86 -18  986.3  1.1  739  314           
00 19.02.17 030 (СВ) 4{11}  20000 м  {снег}  8/8 330 м 
[St]
-14.3 -16.4 84 -19  988.2  740  316           
03 19.02.17 020 (С) 4{10}  20000 м  позёмок{снег}  8/8 300 м 
[St]
-15 -17.1 84 -20  990.4  2.1  742  318  -15    44  неравномерный
сухой снег
100% 
06 19.02.17 360 (С) 20000 м  в посл. час снег  10/0 средняя 
[As trans]
-16.4 -18.6 83 -21  992.1  1.7  743  320  -16.4         
09 19.02.17 360 (С) 20000 м    8/0 верхняя 
[Ci fib]
-16.5 -18.9 82 -20  993.9  1.9  744  321           
12 19.02.17 330 (СЗ) 20000 м    3/0 верхняя 
[Ci fib]
-16.9 -19.6 80 -19  996  2.1  746  322           
15 19.02.17 310 (СЗ) 20000 м    3/0 средняя, верхняя 
[Ac trans|Ci fib]
-21.8 -24.3 80 -25  996.7  0.6  746  329    -15  0.0     
18 19.02.17 260 (З) 20000 м    ясно 
-29.3 -32.6 73 -30  997.3  0.6  747  339           
21 19.02.17 230 (ЮЗ) 0500 м  переохл. туман  ?/?  
-31.3 -34.9 70 -32  997.8  0.4  747  342           
00 20.02.17 220 (ЮЗ) 2000 м  дымка{туман}  10/10 60 м 
[St]
-28.5 -31.8 73 -29  997.6  0.1  747  338           
03 20.02.17 260 (З) 20000 м  {туман}  10/10 100 м 
[St]
-25.9 -29 75 -26  996.9  -0.7  747  334  -32.8      44  неравномерный
сухой снег
100% 
06 20.02.17 200 (Ю) 0500 м  переохл. туман  ?/?  
-25.8 -28.9 75 -26  996.3  -0.5  746  334           
09 20.02.17 300 (СЗ) 20000 м  {туман}  8/4 200 м верхняя 
[St|Ci fib]
-22.2 -24.9 79 -23  995.6  -0.6  746  329           
12 20.02.17 тихо ()   20000 м  {туман}  ясно 
-22.9 -25.7 78 -23  995.1  -0.6  745  329           
15 20.02.17 040 (СВ) 20000 м    1/0 верхняя 
[Ci fib]
-31.7 -35.4 70 -33  994.4  -0.7  745  341    -20.4       
18 20.02.17 тихо ()   0500 м  переохл. туман  ?/?  
-35.2 -39.3 66 -35  994.2  -0.2  745  346           
21 20.02.17 тихо ()   0200 м  переохл. туман  ?/?  
-35.1 -39.3 65 -35  993.9  -0.4  744  346           
00 21.02.17 тихо ()   4000 м  слаб. снег{туман}  10/9 150 м средняя 
[Frnb|As trans]
-30.9 -34.5 71 -31  994.3  0.4  745  340           
03 21.02.17 тихо ()   4000 м  слаб. снег  10/9 150 м средняя 
[Frnb|As trans]
-29.5 -32.9 72 -30  994.4  0.1  745  338  -35.5    0.2  44  неравномерный
сухой снег
100% 
06 21.02.17 210 (ЮЗ) 4000 м  слаб. снег  10/4 200 м средняя 
[Frnb|As trans]
-28.1 -31.4 73 -29  994.8  0.4  745  336           
Время (UTC), дата Ветер
(°,м/с) 
Видим.   Явления Облачность Т
(°С)
Тd
(°С)
f(%) Тe
(°С)
Pmin
(гПа)
dP
(гПа)
Po
(мм)
O2
(г/м3)
Тmin Tmax R s Состояние
почвы

Для получения пояснительной информации подведите курсор к названию столбца.

ПОГОДА Нарьян-Мар - архив

Всё, что Вы хотите узнать о погоде Нарьян-Мар - удобно и подробно!

Выберите нужную дату (начиная с 1 января 2015* года) и нажмите кнопку "Найти".
Будут отображены архивные сводки погоды по пункту Нарьян-Мар, начиная с указанной даты.


Отображать данные в формате CSV (для использования в таблицах Excel)


Внимание! Наш архив погоды предназначен исключительно для личного некоммерческого использования в познавательных целях. Если Вам необходимы официальные справки о состоянии погоды (для производственных, юридических, коммерческих и т.п. целей), обращайтесь в органы Росгидромета.

*Примечание: данная дата относится к архиву по метеостанциям СССР (Россия, СНГ, Балтия).
Архив по метеостанциям Зарубежной Европы и Азии (кроме Китая) хранится 10 дней, по другим регионам земного шара (Китай, Африка, Америка, Австралия, Океания) - 1 день.

Нарьян-Мар - район местоположения метеостанции


Название, широта, долгота, высота метеостанции:
Нарьян-Мар 67.6°ш. 53°д. 12 м над ур. моря [Российская Федерация]

Дополнительная информация

В oтличие oт бoльшинства пoгoдных сайтoв мы публикуем пoдрoбную метеoинфoрмацию в детальнoм прoфессиoнальнoм фoрмате.

Характеристики температуры и влажнoсти вoздуха измеряются на высoте 2 м в тени вдали oт зданий и деревьев.
Скoрoсть ветра измеряется на высoте 10 м (на урoвне рoста челoвека скoрoсть ветра ниже в 1.5-2 раза). Если метеoстанция нахoдится в гoрoде или в лесу, тo скoрoсть ветра занижена на 2-4 м/с пo сравнению с oткрытым местoм. Скoрoсть ветра над акватoриями крупных рек и oзёр, а также на вершинах хoлмoв на 2-5 м/с выше, чем в oбычных услoвиях.
Атмoсфернoе давление в разных тoчках местнoсти мoжет значительнo oтличаться oт давления на метеoстанции, в зависимoсти oт услoвий рельефа (при пoдъёме на 10 м давление пoнижается примернo на 1 мм рт.ст.).